Location: Ar Ranvel
(48.3000°N, 4.8833°W)
Time: 19:27:39
(UTC+00:00)

ISS - Pass Details

Date: 02 October 2021
Orbit: 417 x 423 km, 51.6° (Epoch: 20 October)

Event Time Altitude Azimuth Distance (km) Brightness Sun altitude
Rises 19:04:23 0° 292° (WNW) 2,366 1.8 -12.1°
Reaches altitude 10° 19:06:29 10° 289° (WNW) 1,501 0.5 -12.5°
Maximum altitude 19:09:50 67° 207° (SSW) 458 -3.6 -13.0°
Enters shadow 19:11:52 22° 129° (SE) 980 -2.4 -13.4°
